When you browse on this site, cookies collect data to enhance your experience and personalize the content and advertising you see.
Visit our Privacy Policy to learn more. By continuing to use the site, you agree to this use of cookies and data.
  • In France
  • List of Countries
  • For 7 days
  • Water Temperature
  • Satellite Maps
  • Weather Map
  • Weather Widgets
  • user-avatar
    Login

    Hourly Weather Seredichi

    Today, 21 May, Tuesday

    Time Temperature Precipitation Wind Pressure Humidity
    00:00 +14°C° 0 mm 2 mps 747 mmHg 84%
    01:00 +14°C° 0 mm 2 mps 747 mmHg 85%
    02:00 +13°C° 0 mm 2 mps 747 mmHg 85%
    03:00 +14°C° 0 mm 2 mps 747 mmHg 86%
    04:00 +14°C° 0 mm 2 mps 747 mmHg 86%
    05:00 +14°C° 0 mm 2 mps 747 mmHg 87%
    06:00 +16°C° 0 mm 2 mps 747 mmHg 80%
    07:00 +18°C° 0 mm 2 mps 747 mmHg 74%
    08:00 +19°C° 0 mm 2 mps 747 mmHg 68%
    09:00 +20°C° 0.1 mm 3 mps 747 mmHg 64%
    10:00 +21°C° 0.1 mm 3 mps 747 mmHg 61%
    11:00 +22°C° 0.1 mm 4 mps 747 mmHg 58%
    12:00 +22°C° 0 mm 4 mps 746 mmHg 56%
    13:00 +23°C° 0 mm 4 mps 746 mmHg 55%
    14:00 +23°C° 0 mm 5 mps 746 mmHg 54%
    15:00 +22°C° 0 mm 4 mps 745 mmHg 57%
    16:00 +22°C° 0 mm 4 mps 745 mmHg 61%
    17:00 +21°C° 0 mm 3 mps 744 mmHg 64%
    18:00 +19°C° 0 mm 3 mps 744 mmHg 70%
    19:00 +17°C° 0 mm 3 mps 744 mmHg 75%
    20:00 +15°C° 0 mm 2 mps 744 mmHg 81%
    21:00 +15°C° 0 mm 2 mps 744 mmHg 82%
    22:00 +14°C° 0 mm 2 mps 744 mmHg 84%
    23:00 +13°C° 0 mm 2 mps 744 mmHg 85%

    Tomorrow, 22 May, Wednesday

    Time Temperature Precipitation Wind Pressure Humidity
    00:00 +13°C° 0 mm 2 mps 743 mmHg 87%
    01:00 +13°C° 0 mm 2 mps 743 mmHg 88%
    02:00 +12°C° 0 mm 2 mps 743 mmHg 89%
    03:00 +13°C° 0 mm 2 mps 743 mmHg 89%
    04:00 +13°C° 0 mm 2 mps 742 mmHg 90%
    05:00 +13°C° 0 mm 2 mps 742 mmHg 90%
    06:00 +15°C° 0.1 mm 2 mps 742 mmHg 89%
    07:00 +16°C° 0.1 mm 3 mps 742 mmHg 88%
    08:00 +17°C° 0.1 mm 4 mps 741 mmHg 87%
    09:00 +17°C° 0 mm 4 mps 741 mmHg 85%
    10:00 +18°C° 0 mm 4 mps 741 mmHg 84%
    11:00 +18°C° 0 mm 4 mps 741 mmHg 83%
    12:00 +19°C° 0.1 mm 4 mps 740 mmHg 79%
    13:00 +20°C° 0.1 mm 3 mps 740 mmHg 76%
    14:00 +21°C° 0.1 mm 3 mps 740 mmHg 72%
    15:00 +21°C° 0.2 mm 3 mps 739 mmHg 73%
    16:00 +21°C° 0.2 mm 3 mps 739 mmHg 75%
    17:00 +21°C° 0.2 mm 3 mps 739 mmHg 77%
    18:00 +20°C° 0 mm 3 mps 738 mmHg 82%
    19:00 +18°C° 0 mm 2 mps 738 mmHg 87%
    20:00 +17°C° 0 mm 2 mps 738 mmHg 92%
    21:00 +16°C° 0 mm 2 mps 738 mmHg 93%
    22:00 +16°C° 0 mm 2 mps 738 mmHg 93%
    23:00 +15°C° 0 mm 2 mps 738 mmHg 94%

    Day after tomorrow, 23 May, Thursday

    Time Temperature Precipitation Wind Pressure Humidity
    00:00 +15°C° 0 mm 2 mps 738 mmHg 94%
    01:00 +14°C° 0 mm 2 mps 738 mmHg 94%
    02:00 +14°C° 0 mm 2 mps 738 mmHg 94%
    03:00 +14°C° 0 mm 2 mps 738 mmHg 94%
    04:00 +14°C° 0 mm 2 mps 737 mmHg 94%
    05:00 +15°C° 0 mm 2 mps 737 mmHg 93%
    06:00 +17°C° 0 mm 2 mps 738 mmHg 87%
    07:00 +19°C° 0 mm 3 mps 738 mmHg 81%
    08:00 +20°C° 0 mm 3 mps 738 mmHg 74%
    09:00 +22°C° 0 mm 3 mps 738 mmHg 67%
    10:00 +24°C° 0 mm 3 mps 738 mmHg 60%
    11:00 +25°C° 0 mm 3 mps 737 mmHg 54%
    12:00 +26°C° 0 mm 3 mps 737 mmHg 52%
    13:00 +26°C° 0 mm 3 mps 737 mmHg 51%
    14:00 +26°C° 0 mm 3 mps 737 mmHg 50%
    15:00 +26°C° 0.1 mm 3 mps 737 mmHg 54%
    16:00 +25°C° 0.1 mm 3 mps 737 mmHg 59%
    17:00 +25°C° 0.1 mm 2 mps 737 mmHg 63%
    18:00 +23°C° 0.1 mm 2 mps 737 mmHg 71%
    19:00 +21°C° 0.1 mm 1 mps 737 mmHg 78%
    20:00 +18°C° 0.1 mm 1 mps 737 mmHg 85%
    21:00 +18°C° 0 mm 1 mps 737 mmHg 87%
    22:00 +16°C° 0 mm 1 mps 738 mmHg 88%
    23:00 +15°C° 0 mm 0 mps 738 mmHg 90%

    24 May, Friday

    Time Temperature Precipitation Wind Pressure Humidity
    00:00 +14°C° 0 mm 0 mps 738 mmHg 90%
    01:00 +14°C° 0 mm 0 mps 738 mmHg 91%
    02:00 +14°C° 0 mm 0 mps 738 mmHg 91%
    03:00 +14°C° 0.1 mm 0 mps 738 mmHg 91%
    04:00 +14°C° 0.1 mm 0 mps 738 mmHg 91%
    05:00 +15°C° 0.1 mm 0 mps 738 mmHg 91%
    06:00 +18°C° 0.7 mm 1 mps 738 mmHg 87%
    07:00 +20°C° 0.7 mm 1 mps 738 mmHg 83%
    08:00 +21°C° 0.7 mm 1 mps 739 mmHg 79%
    09:00 +22°C° 1.7 mm 1 mps 739 mmHg 75%
    10:00 +23°C° 1.7 mm 2 mps 739 mmHg 72%
    11:00 +24°C° 1.7 mm 2 mps 739 mmHg 68%
    12:00 +24°C° 0.7 mm 2 mps 738 mmHg 68%
    13:00 +24°C° 0.7 mm 2 mps 738 mmHg 67%
    14:00 +24°C° 0.7 mm 2 mps 738 mmHg 67%
    15:00 +24°C° 0.5 mm 2 mps 738 mmHg 70%
    16:00 +24°C° 0.5 mm 2 mps 738 mmHg 74%
    17:00 +23°C° 0.5 mm 2 mps 737 mmHg 77%
    18:00 +21°C° 0.2 mm 2 mps 737 mmHg 81%
    19:00 +19°C° 0.2 mm 2 mps 737 mmHg 86%
    20:00 +18°C° 0.2 mm 2 mps 737 mmHg 90%
    21:00 +17°C° 0 mm 2 mps 737 mmHg 91%
    22:00 +17°C° 0 mm 2 mps 737 mmHg 93%
    23:00 +16°C° 0 mm 2 mps 736 mmHg 94%

    25 May, Saturday

    Time Temperature Precipitation Wind Pressure Humidity
    00:00 +16°C° 0.8 mm 2 mps 736 mmHg 94%
    01:00 +15°C° 0.8 mm 2 mps 736 mmHg 95%
    02:00 +15°C° 0.8 mm 2 mps 736 mmHg 95%
    03:00 +15°C° 0 mm 2 mps 736 mmHg 95%
    04:00 +15°C° 0 mm 2 mps 736 mmHg 95%
    05:00 +16°C° 0 mm 2 mps 736 mmHg 95%
    06:00 +17°C° 0.2 mm 3 mps 736 mmHg 90%
    07:00 +19°C° 0.2 mm 3 mps 736 mmHg 85%
    08:00 +20°C° 0.2 mm 4 mps 736 mmHg 80%
    09:00 +21°C° 0.3 mm 4 mps 736 mmHg 76%
    10:00 +22°C° 0.3 mm 4 mps 735 mmHg 71%
    11:00 +22°C° 0.3 mm 5 mps 735 mmHg 67%
    12:00 +22°C° 0.8 mm 4 mps 735 mmHg 69%
    13:00 +22°C° 0.8 mm 4 mps 735 mmHg 72%
    14:00 +22°C° 0.8 mm 4 mps 734 mmHg 74%
    15:00 +21°C° 0.5 mm 4 mps 734 mmHg 76%
    16:00 +21°C° 0.5 mm 4 mps 734 mmHg 78%
    17:00 +21°C° 0.5 mm 3 mps 734 mmHg 80%
    18:00 +20°C° 1.8 mm 3 mps 733 mmHg 85%
    19:00 +18°C° 1.8 mm 2 mps 733 mmHg 89%
    20:00 +17°C° 1.8 mm 2 mps 733 mmHg 93%
    21:00 +16°C° 0.2 mm 2 mps 733 mmHg 94%
    22:00 +16°C° 0.2 mm 2 mps 733 mmHg 95%
    23:00 +15°C° 0.2 mm 2 mps 733 mmHg 96%

    26 May, Sunday

    Time Temperature Precipitation Wind Pressure Humidity
    00:00 +15°C° 0 mm 2 mps 733 mmHg 96%
    01:00 +14°C° 0 mm 2 mps 733 mmHg 97%
    02:00 +14°C° 0 mm 2 mps 733 mmHg 97%
    03:00 +14°C° 0 mm 2 mps 733 mmHg 97%
    04:00 +13°C° 0 mm 3 mps 733 mmHg 97%
    05:00 +14°C° 0 mm 3 mps 734 mmHg 96%
    06:00 +14°C° 0 mm 3 mps 734 mmHg 93%
    07:00 +16°C° 0 mm 3 mps 734 mmHg 89%
    08:00 +17°C° 0 mm 3 mps 734 mmHg 86%
    09:00 +18°C° 0 mm 4 mps 734 mmHg 76%
    10:00 +19°C° 0 mm 4 mps 734 mmHg 66%
    11:00 +21°C° 0 mm 4 mps 734 mmHg 57%
    12:00 +21°C° 0 mm 4 mps 734 mmHg 56%
    13:00 +22°C° 0 mm 4 mps 734 mmHg 55%
    14:00 +23°C° 0 mm 4 mps 735 mmHg 54%
    15:00 +22°C° 0.3 mm 4 mps 735 mmHg 62%
    16:00 +21°C° 0.3 mm 4 mps 735 mmHg 70%
    17:00 +20°C° 0.3 mm 4 mps 735 mmHg 78%
    18:00 +18°C° 0 mm 4 mps 735 mmHg 81%
    19:00 +17°C° 0 mm 3 mps 736 mmHg 84%
    20:00 +14°C° 0 mm 3 mps 736 mmHg 87%
    21:00 +13°C° 0 mm 3 mps 736 mmHg 88%
    22:00 +13°C° 0 mm 2 mps 737 mmHg 89%
    23:00 +12°C° 0 mm 2 mps 737 mmHg 90%
    Show more